Home   Weather   Pontiac   Past weeks

Flag for USA Past Weather in Pontiac, Michigan, USA — Yesterday and Last 2 Weeks

43 °F


Feels Like: 38 °F
Forecast: 37 / 50 °F
Wind: 8 mph from Northwest

Location: Oakland County International Airport

Current Time: Oct 24, 2016 at 9:34:12 PM

Latest Report: Oct 24, 2016 at 8:53 PM

Visibility: 10 mi

Pressure: 30.33 "Hg

Humidity: 74%

Dew Point: 35 °F

Location of PontiacLocation

Past Weather in Pontiac — Graph


Pontiac Temperature Yesterday

Maximum temperature yesterday: 63 °F (at 3:53 PM)
Minimum temperature yesterday: 42 °F (at 7:53 AM)
Average temperature yesterday: 53 °F

High & Low Weather Summary for the Past Weeks

High77 °F (Oct 17, 2:53 PM)97% (Oct 17, 4:53 AM)30.47 "Hg (Oct 17, 4:53 AM)
Low36 °F (Oct 10, 6:53 AM)44% (Oct 10, 3:53 PM)29.56 "Hg (Oct 18, 7:53 AM)
Average55 °F76%30.06 "Hg
* Reported Oct 9 7:53 PM — Oct 24 7:53 PM, Pontiac, Weather by CustomWeather, © 2016

Note: Actual official high and low records may vary slightly from our data, if they occured in-between our weather recording intervals... More about our weather records


Pontiac Weather History for the Previous 24 Hours

Scroll right to see more
Time TempWeatherWind HumidityBarometerVisibility
7:53 PM
Mon, Oct 24
45 °FPassing clouds.5 mph65%30.31 "Hg10 mi
6:53 PM46 °FPassing clouds.7 mph63%30.30 "Hg10 mi
5:53 PM50 °FPassing clouds.8 mph57%30.29 "Hg10 mi
4:53 PM49 °FScattered clouds.10 mph57%30.29 "Hg10 mi
3:53 PM50 °FPartly sunny.9 mph61%30.28 "Hg10 mi
2:53 PM50 °FPartly sunny.14 mph57%30.28 "Hg10 mi
1:53 PM51 °FPartly sunny.14 mph61%30.27 "Hg10 mi
12:53 PM48 °FPartly sunny.12 mph63%30.27 "Hg10 mi
11:53 AM47 °FPartly sunny.12 mph69%30.26 "Hg10 mi
10:53 AM47 °FPartly sunny.17 mph69%30.24 "Hg10 mi
9:53 AM47 °FPartly sunny.14 mph71%30.23 "Hg10 mi
8:53 AM46 °FBroken clouds.16 mph77%30.20 "Hg10 mi
7:53 AM45 °FPassing clouds.10 mph76%30.16 "Hg10 mi
6:53 AM45 °FPassing clouds.12 mph80%30.14 "Hg10 mi
5:53 AM45 °FPassing clouds.9 mph76%30.12 "Hg10 mi
4:53 AM46 °FClear.12 mph71%30.09 "Hg10 mi
3:53 AM48 °FOvercast.10 mph74%30.06 "Hg10 mi
2:53 AM48 °FPassing clouds.8 mph71%30.04 "Hg10 mi
1:53 AM49 °FPassing clouds.14 mph80%30.01 "Hg10 mi
12:53 AM50 °FPassing clouds.7 mph80%29.98 "Hg10 mi
11:53 PM
Sun, Oct 23
50 °FPartly cloudy.8 mph80%29.96 "Hg10 mi
10:53 PM53 °FPartly cloudy.10 mph77%29.91 "Hg10 mi
9:53 PM52 °FOvercast.8 mph83%29.87 "Hg10 mi
Weather by CustomWeather, © 2016

See weather overviewHow to use our weather pages